Weather History for Harrison, AR

Change the Weather History Date:

Wednesday, February 5, 2014

  Actual Average Record
Temperature  
Mean Temperature 19 °F 38 °F  
Max Temperature 30 °F 49 °F 87 °F (1927)
Min Temperature 8 °F 28 °F -5 °F (1906)
Degree Days  
Heating Degree Days 46 27  
Month to date heating degree days 196 135  
Since 1 July heating degree days 2879 2621  
Cooling Degree Days 0 0  
Month to date cooling degree days 0 0  
Year to date cooling degree days 0 0  
Moisture  
Dew Point 11 °F    
Average Humidity 81    
Maximum Humidity 100    
Minimum Humidity 62    
Precipitation  
Precipitation T in 0.08 in 2.32 in (1957)
Month to date precipitation 0.86 0.43  
Year to date precipitation 1.89 2.99  
Snow  
Snow T in 0.10 in 3.00 in (2004)
Month to date snowfall 5.8 0.9  
Since 1 July snowfall 15.8 6.9  
Snow Depth 6.00 in    
Sea Level Pressure  
Sea Level Pressure 30.36 in    
Wind  
Wind Speed 11 mph (NW)    
Max Wind Speed 21 mph    
Max Gust Speed 30 mph    
Visibility 6 miles    
Events Snow    
T = Trace of Precipitation, MM = Missing Value Source: NWS Daily Summary

Daily Weather History Graph

Daily Weather History Graph

Search for Another Location

Airport:

Trip Planner

Search our weather history database for the weather conditions in past years. The results will help you decide how hot, cold, wet, or windy it might be!

Date:

Astronomy

Feb. 05, 2014 Rise Set
Actual Time 7:10 AM CST 5:43 PM CST
Civil Twilight 6:43 AM CST 6:10 PM CST
Nautical Twilight 6:12 AM CST 6:40 PM CST
Astronomical Twilight 5:42 AM CST 7:10 PM CST
Moon 10:38 AM CST (2/5) No Moon Set
Length of Visible Light 11h 26m
Length of Day
10h 33m
Waxing Crescent, 39% of the Moon is Illuminated
Feb 5
Waxing Crescent
Feb 6
First Quarter
Feb 14
Full
Feb 22
Last Quarter
Mar 1
New

Hourly Weather History & Observations

Time (CST) Temp. Windchill Dew Point Humidity Pressure Visibility Wind Dir Wind Speed Gust Speed Precip Events Conditions
12:53 AM 28.9 °F 21.1 °F 28.0 °F 96% 30.00 in 5.0 mi NW 8.1 mph - N/A   Overcast
1:42 AM 28.4 °F 19.1 °F 26.6 °F 93% 29.98 in 8.0 mi WNW 10.4 mph 19.6 mph N/A   Overcast
1:53 AM 28.9 °F 18.6 °F 26.1 °F 89% 30.02 in 10.0 mi WNW 12.7 mph 21.9 mph N/A   Overcast
2:53 AM 26.1 °F 15.6 °F 24.1 °F 92% 30.07 in 6.0 mi NW 11.5 mph 20.7 mph N/A   Overcast
3:53 AM 21.9 °F 8.7 °F 19.9 °F 92% 30.11 in 4.0 mi NW 15.0 mph 28.8 mph N/A   Overcast
4:51 AM 19.4 °F 8.6 °F 17.6 °F 93% 30.14 in 9.0 mi NW 9.2 mph 23.0 mph N/A   Overcast
4:53 AM 19.9 °F 9.3 °F 17.1 °F 89% 30.19 in 8.0 mi WNW 9.2 mph 23.0 mph N/A   Overcast
5:33 AM 17.6 °F 2.2 °F 14.0 °F 86% 30.18 in 6.0 mi NW 17.3 mph 28.8 mph 0.00 in Snow Light Snow
5:53 AM 18.0 °F 4.2 °F 12.9 °F 81% 30.25 in 5.0 mi NW 13.8 mph 23.0 mph 0.00 in Snow Light Snow
6:53 AM 18.0 °F 5.4 °F 12.0 °F 78% 30.30 in 4.0 mi NW 11.5 mph 23.0 mph 0.00 in Snow Light Snow
7:23 AM 17.6 °F 5.0 °F 12.2 °F 79% 30.27 in 1.8 mi NW 11.5 mph 24.2 mph 0.00 in Snow Light Snow
7:39 AM 17.6 °F 2.7 °F 12.2 °F 79% 30.28 in 2.0 mi NW 16.1 mph 23.0 mph 0.00 in Snow Light Snow
7:53 AM 17.1 °F 4.3 °F 12.0 °F 81% 30.34 in 1.5 mi NW 11.5 mph 19.6 mph 0.00 in Snow Light Snow
8:16 AM 17.6 °F 6.4 °F 10.4 °F 73% 30.31 in 2.5 mi NNW 9.2 mph 19.6 mph 0.00 in Snow Light Snow
8:26 AM 17.6 °F 5.0 °F 10.4 °F 73% 30.32 in 3.0 mi NW 11.5 mph 21.9 mph 0.00 in Snow Light Snow
8:53 AM 17.1 °F 3.6 °F 10.0 °F 74% 30.39 in 4.0 mi NW 12.7 mph 21.9 mph 0.00 in Snow Light Snow
9:09 AM 17.6 °F 5.7 °F 10.4 °F 73% 30.34 in 2.0 mi NNW 10.4 mph - 0.00 in Snow Light Snow
9:16 AM 17.6 °F 4.3 °F 12.2 °F 79% 30.34 in 1.2 mi NW 12.7 mph - 0.00 in Snow Light Snow
9:25 AM 17.6 °F 5.0 °F 10.4 °F 73% 30.34 in 0.8 mi NW 11.5 mph 19.6 mph 0.00 in Snow Light Snow
9:34 AM 17.6 °F 3.2 °F 12.2 °F 79% 30.35 in 1.0 mi NW 15.0 mph 20.7 mph 0.00 in Snow Light Snow
9:51 AM 17.6 °F 3.7 °F 10.4 °F 73% 30.35 in 2.5 mi NW 13.8 mph 24.2 mph 0.00 in Snow Light Snow
9:53 AM 17.1 °F 3.6 °F 10.0 °F 74% 30.40 in 3.0 mi NW 12.7 mph 24.2 mph 0.00 in Snow Light Snow
10:12 AM 17.6 °F 2.7 °F 10.4 °F 73% 30.37 in 2.0 mi NW 16.1 mph 23.0 mph 0.00 in Snow Light Snow
10:42 AM 17.6 °F 3.2 °F 10.4 °F 73% 30.39 in 3.0 mi NW 15.0 mph 24.2 mph 0.00 in Snow Light Snow
10:53 AM 18.0 °F 4.2 °F 9.0 °F 68% 30.44 in 5.0 mi NW 13.8 mph 23.0 mph 0.00 in Snow Light Snow
11:53 AM 17.1 °F 4.3 °F 8.1 °F 68% 30.45 in 9.0 mi NNW 11.5 mph 18.4 mph 0.00 in Snow Light Snow
12:08 PM 17.6 °F 3.7 °F 8.6 °F 68% 30.40 in 10.0 mi NW 13.8 mph 21.9 mph 0.00 in   Scattered Clouds
12:43 PM 17.6 °F 5.0 °F 8.6 °F 68% 30.39 in 10.0 mi NW 11.5 mph 21.9 mph 0.00 in   Mostly Cloudy
12:53 PM 19.0 °F 6.8 °F 9.0 °F 65% 30.43 in 10.0 mi NW 11.5 mph 20.7 mph 0.00 in   Mostly Cloudy
1:14 PM 19.4 °F 6.0 °F 8.6 °F 63% 30.38 in 10.0 mi NW 13.8 mph 21.9 mph N/A   Partly Cloudy
1:53 PM 19.0 °F 6.1 °F 8.1 °F 62% 30.43 in 10.0 mi NW 12.7 mph - N/A   Partly Cloudy
2:53 PM 19.0 °F 6.1 °F 8.1 °F 62% 30.45 in 10.0 mi NW 12.7 mph 21.9 mph N/A   Clear
3:53 PM 18.0 °F 5.4 °F 8.1 °F 65% 30.47 in 10.0 mi WNW 11.5 mph 20.7 mph N/A   Clear
4:53 PM 16.0 °F 3.6 °F 7.0 °F 68% 30.50 in 10.0 mi NW 10.4 mph 16.1 mph N/A   Clear
5:53 PM 14.0 °F 1.2 °F 6.1 °F 71% 30.54 in 10.0 mi NW 10.4 mph 20.7 mph N/A   Clear
6:53 PM 12.0 °F -1.3 °F 5.0 °F 73% 30.56 in 10.0 mi NW 10.4 mph 18.4 mph N/A   Clear
7:53 PM 12.0 °F -0.4 °F 3.9 °F 70% 30.58 in 10.0 mi NW 9.2 mph - N/A   Clear
8:53 PM 10.9 °F -4.1 °F 3.9 °F 73% 30.59 in 10.0 mi NW 12.7 mph 18.4 mph N/A   Partly Cloudy
9:51 PM 10.4 °F 0.8 °F 3.2 °F 73% 30.51 in 10.0 mi NNW 5.8 mph - N/A   Mostly Cloudy
9:53 PM 10.9 °F 0.2 °F 3.9 °F 73% 30.58 in 10.0 mi NNW 6.9 mph - N/A   Mostly Cloudy
10:53 PM 10.0 °F -2.9 °F 1.9 °F 70% 30.60 in 10.0 mi NNW 9.2 mph - N/A   Overcast
11:35 PM 8.6 °F -3.7 °F 1.4 °F 73% 30.51 in 10.0 mi NW 8.1 mph - N/A   Scattered Clouds
11:53 PM 8.1 °F -3.2 °F 1.0 °F 73% 30.58 in 10.0 mi NNW 6.9 mph - N/A   Clear